Location: Banff
(51.1670°N, 115.5670°W)
Time: 17:01:05
(UTC-07:00)

Daily predictions for brighter satellites

Satellite Brightness Start Highest point End
(mag) Time Altitude Azimuth Time Altitude Azimuth Time Altitude Azimuth
NOAA 12 4.1 18:39:00 10° SSE 18:44:19 74° ENE 18:49:40 10° NNW
CENTAUR R/B 3.0 18:41:19 10° S 18:46:58 41° ESE 18:53:25 10° NE
Cosmos 1378 Rocket 3.6 18:46:02 10° N 18:50:25 58° ENE 18:54:47 10° SSE
CZ-4 R/B 2.9 18:47:26 10° S 18:51:14 41° W 18:55:00 10° NNW
EO 1 Del DPAF 4.0 18:49:24 10° NNE 18:52:52 31° E 18:56:18 10° SSE
FREGAT/IRIS 3.5 18:50:53 10° SE 18:53:30 29° ENE 18:56:09 10° N
DNEPR-1 R/B 3.6 18:50:36 10° SW 18:54:49 86° NW 18:59:24 10° NE
Landsat 4 4.2 18:51:34 10° NNE 18:55:08 39° E 18:58:40 10° S
USA 267 3.6 18:49:07 10° E 18:55:28 55° N 19:01:49 10° WNW
MOS 1-B Rocket 4.1 18:50:20 10° SSE 18:56:22 82° WSW 19:02:02 10° NNW
Resurs 01 Rocket 3.1 18:54:05 10° E 18:56:59 18° ENE 18:59:55 10° NNE
Meteor 1-18 Rocket 4.2 18:52:48 10° N 18:58:26 74° ENE 19:03:59 10° SSE
Iridium 4 Rocket 3.4 18:55:13 10° N 18:59:59 49° E 19:04:20 10° SSE
Cosmos 1437 Rocket 3.7 19:01:50 10° SSE 19:05:24 30° E 19:09:01 10° NNE
SL-8 R/B 4.3 19:01:17 10° SW 19:05:48 43° SSE 19:09:55 12° E
Cosmos 158 Rocket 3.9 19:01:35 10° S 19:06:23 60° ESE 19:11:12 10° NNE
Meteor 1-25 Rocket 4.2 19:01:52 10° S 19:07:19 61° E 19:12:50 10° NNE
Cosmos 1782 Rocket 4.2 19:03:57 10° SSE 19:07:55 33° E 19:11:52 10° NNE
Meteor 1-19 Rocket 4.4 19:03:10 10° N 19:08:29 46° ENE 19:13:48 10° SE
CZ-4C R/B 3.1 19:02:59 10° NW 19:09:33 53° NE 19:17:05 10° ESE
Cosmos 1331 Rocket 4.3 19:05:00 10° NNW 19:10:09 48° ENE 19:15:17 10° SE
Cosmos 1633 2.5 19:06:40 10° S 19:10:12 64° E 19:13:46 10° NNE
COSMO-SKYMED 1 2.7 19:08:15 10° NNE 19:12:38 80° WNW 19:16:58 10° SSW
Okean 3 4.0 19:09:16 10° NNW 19:13:25 63° W 19:17:32 10° S
BREEZE-M DEB (TANK) 2.9 19:14:33 10° W 19:16:48 31° SSW 19:19:18 10° SE
USA 186 3.2 19:17:39 16° ESE 19:19:10 21° ENE 19:21:45 10° NNE
ATLAS 3B R/B 3.5 19:12:19 10° WSW 19:19:13 49° NNW 19:25:51 10° NE
H-2A R/B 4.1 19:18:59 10° NE 19:19:54 10° NE 19:20:50 10° NE
Cosmos 1943 3.4 19:16:11 10° NNW 19:21:41 50° NE 19:27:12 10° SE
Spot 2 Rocket 4.5 19:17:54 11° ESE 19:21:51 27° ENE 19:26:03 10° N
CZ-2C R/B 4.4 19:18:15 10° N 19:22:37 55° WNW 19:26:56 10° SSW
Sich 1 Rocket 3.6 19:18:51 10° S 19:23:15 59° E 19:27:38 10° NNE
Meteor 1-11 Rocket 4.5 19:18:36 10° SE 19:23:22 29° E 19:28:15 10° NNE
ALOS 3.8 19:21:42 10° SSW 19:26:06 40° W 19:30:32 10° NNW
Cosmos 1048 Rocket 4.0 19:21:18 10° S 19:26:32 62° ESE 19:31:43 10° NNE
NOSS 3-2 (A) 4.1 19:22:03 10° WSW 19:28:07 58° NW 19:35:00 10° NE
Gbstr 26 Del rocket 4.3 19:26:53 10° S 19:29:29 18° SE 19:30:22 17° ESE
Cosmos 921 Rocket 3.6 19:25:20 10° NNW 19:29:49 62° WSW 19:34:14 10° S
Tsikada Rocket 4.2 19:24:37 10° SSE 19:30:47 51° E 19:36:57 10° NNE
ARGOS Delta rocket 4.3 19:29:05 10° NNE 19:33:32 35° E 19:37:46 10° SSE
Okean 2 Rocket 3.5 19:30:20 10° SSE 19:34:23 38° E 19:38:30 10° NNE
Cosmos 1464 Rocket 4.4 19:28:41 10° NNW 19:34:47 68° W 19:40:51 10° S
ERS-2 2.2 19:32:03 10° SSE 19:35:44 79° WSW 19:39:27 10° NNW
FengYun 1-2 T 4.4 19:32:25 10° S 19:37:54 76° WSW 19:43:26 10° NNW
Cosmos 1939 Rocket 3.7 19:36:59 20° ESE 19:39:07 32° ENE 19:42:46 10° N
Cosmos 2227 Rocket 3.3 19:34:36 10° WSW 19:40:01 45° NW 19:45:28 10° NNE
Cosmos 1302 Rocket 4.2 19:36:38 10° NNW 19:41:43 49° ENE 19:45:35 17° SE
SL-16 R/B 4.1 19:37:17 10° NW 19:42:13 31° WSW 19:47:08 10° SSW
Cosmos 2151 Rocket 4.4 19:40:20 10° SSE 19:44:07 27° E 19:47:53 10° NNE
Cosmos 1184 Rocket 2.8 19:41:30 10° N 19:44:45 52° ENE 19:46:44 20° SE
H-2A R/B 3.9 19:41:20 10° S 19:45:07 47° W 19:48:53 10° NNW
Cosmos 1908 Rocket 4.0 19:43:00 10° SSW 19:47:27 65° WNW 19:51:54 10° N
SeaSat 1 2.4 19:44:27 11° SE 19:49:16 76° NE 19:54:14 10° NNW
Cosmos 2297 Rocket 3.4 19:48:04 10° WSW 19:53:26 42° NW 19:58:50 10° NNE
Meteor 1-23 Rocket 4.5 19:48:15 10° N 19:53:56 50° ENE 19:58:52 14° SE
SJ-6B 2.9 19:53:18 10° S 19:57:07 74° WSW 20:01:04 10° NNW
COSMOS 2455 3.3 19:52:10 10° S 19:57:35 36° ESE 20:00:54 21° ENE
Cosmos 2279 Rocket 4.3 19:55:01 10° N 20:00:57 42° ENE 20:04:23 23° SE
USA 215 4.0 19:59:05 25° E 20:01:24 31° SE 20:07:06 10° SSW
Cosmos 1603 4.3 19:55:55 10° NW 20:01:29 59° WSW 20:06:58 10° S
Cosmos 2346 Rocket 4.4 20:01:27 10° S 20:07:35 70° E 20:13:41 10° NNE
Cosmos 1975 Rocket 4.1 20:04:28 10° NNW 20:08:45 48° W 20:13:03 10° SSW
ATLAS CENTAUR R/B 1.4 20:04:51 10° NW 20:08:58 80° SW 20:10:56 32° SSE
CZ-2D R/B 3.7 20:05:34 10° S 20:09:26 65° WSW 20:13:20 10° NNW
Envisat 3.1 20:05:46 10° SSE 20:10:51 79° WSW 20:15:59 10° NNW
Meteor 1-13 Rocket 4.4 20:07:31 10° NNW 20:13:03 71° W 20:18:31 10° S
Resurs 1-3 3.5 20:10:50 23° SSE 20:13:32 75° ENE 20:17:56 10° NNW
Cosmos 1602 4.3 20:13:28 10° SSW 20:17:19 60° WNW 20:21:11 10° N
Meteor 1-4 Rocket 2.4 20:14:29 10° SSW 20:18:01 88° WNW 20:21:41 10° NNE
Cosmos 2263 Rocket 2.5 20:13:29 10° S 20:18:40 41° ESE 20:19:31 39° E
Cosmos 494 Rocket 3.8 20:14:44 10° SSW 20:19:54 68° ESE 20:25:03 10° NNE
Cosmos 1634 Rocket 3.9 20:16:36 10° N 20:22:49 89° E 20:29:00 10° S
Thor Agena Rocket 3.4 20:19:19 10° NNE 20:24:27 87° ESE 20:29:30 10° SSW
ARGOS 3.8 20:32:29 37° ENE 20:32:29 37° ENE 20:37:14 10° N
Resurs 01 Rocket 1.7 20:30:26 25° S 20:32:58 74° WSW 20:37:25 10° NNW
Cosmos 2142 Rocket 4.5 20:27:35 10° N 20:34:00 88° W 20:40:18 10° S
YAOGAN 6 2.7 20:35:47 71° WSW 20:35:51 71° WSW 20:39:27 10° NNW
CENTAUR R/B 3.1 20:31:08 10° WSW 20:37:25 61° NW 20:44:07 12° NE
USA 267 3.2 20:35:45 42° ESE 20:38:15 84° NNE 20:44:48 10° WNW
Cosmos 1536 Rocket 3.8 20:34:57 10° NNW 20:39:22 70° W 20:41:09 35° S
SL-24 DEB 4.0 20:39:48 10° N 20:44:27 84° E 20:44:52 73° SSE
Cosmos 1536 3.0 20:40:58 10° SSW 20:45:28 67° NNW 20:49:07 10° N
Cosmos 1340 Rocket 4.5 20:43:37 10° N 20:45:25 24° N 20:45:25 24° N
SL-8 R/B 3.8 20:43:18 10° W 20:47:54 64° S 20:47:54 64° S
Cosmos 1025 Rocket 3.8 20:44:27 10° N 20:47:30 42° NNE 20:47:30 42° NNE
Cosmos 1992 Rocket 4.0 20:43:50 10° NNW 20:48:58 63° NE 20:48:58 63° NE
USA 186 3.6 20:49:11 29° WSW 20:49:46 31° W 20:52:48 10° NNW
Meteor 1-5 Rocket 4.3 20:44:13 10° S 20:50:09 89° W 20:56:12 10° NNE
Okean 2 4.3 20:46:20 10° N 20:49:03 39° N 20:49:03 39° N
ERS-1 Rocket 3.9 20:55:49 35° NNE 20:55:49 35° NNE 20:59:12 10° N
Cosmos 2082 Rocket 4.0 20:52:25 10° N 20:56:03 18° NNE 20:56:03 18° NNE
H-2A R/B 2.9 20:59:13 39° NNE 20:59:13 39° NNE 21:03:13 10° N
CZ-4C R/B 3.3 20:51:32 10° NW 20:58:25 58° SW 21:02:25 29° S
Spot 2 Rocket 4.1 20:58:05 29° SSW 21:00:31 56° W 21:05:32 10° NNW
Cosmos 1066 Rocket 4.1 20:56:08 10° N 21:01:58 72° ENE 21:01:58 72° ENE
NOAA 11 4.2 21:02:04 58° S 21:03:08 79° WSW 21:08:36 10° NNW
Meteor 2-20 4.3 21:10:24 78° ESE 21:10:33 79° E 21:16:45 10° NNE
ATLAS 3B R/B 4.1 21:05:31 10° WNW 21:11:28 29° N 21:14:46 20° NE
COSMOS 2406 3.6 21:08:59 10° NNW 21:13:42 51° NNE 21:13:42 51° NNE
Cosmos 2251 Rocket 3.7 21:12:44 10° SSW 21:24:15 - NNE 21:17:44 69° W
Terra 4.2 21:42:36 14° N 21:42:36 14° N 21:43:25 10° N
COSMOS 2455 3.4 21:37:24 10° SW 21:43:19 57° NW 21:44:10 52° NNW
USA 215 3.5 21:46:27 58° SW 21:46:27 58° SW 21:51:35 10° WSW
ATLAS CENTAUR R/B 4.2 21:45:25 10° W 21:47:14 13° WSW 21:47:14 13° WSW
Cosmos 1833 Rocket 4.4 21:47:42 10° NNW 21:50:38 25° N 21:50:38 25° N
Cosmos 2263 Rocket 3.4 21:57:19 10° WSW 22:01:25 37° W 22:01:25 37° W
USA 267 4.3 22:23:06 37° WSW 22:23:06 37° WSW 22:27:48 10° WNW
CENTAUR R/B 4.1 22:23:27 10° WNW 22:29:32 33° N 22:31:19 30° NNE
H-2A R/B 4.2 22:39:50 24° NW 22:39:50 24° NW 22:42:30 10° NNW
Cosmos 2082 Rocket 4.2 22:35:55 10° NNW 22:37:54 22° NNW 22:37:54 22° NNW
ATLAS 3B R/B 4.2 22:57:52 10° NW 23:02:01 29° NNW 23:02:01 29° NNW
